Location: Rocca San Felice
(40.9500°N, 15.1667°E)
Time: 02:22:57
(UTC+00:00)

Daily predictions for brighter satellites

Satellite Brightness Start Highest point End
(mag) Time Altitude Azimuth Time Altitude Azimuth Time Altitude Azimuth
Cosmos 2344 4.4 02:34:23 38° NNE 02:34:23 38° NNE 02:38:48 10° NE
CENTAUR R/B 4.0 02:43:36 29° NE 02:43:36 29° NE 02:46:55 10° NE
Tsikada Rocket 4.5 02:55:03 10° SSE 03:01:04 57° E 03:07:12 10° NNE
NOSS 3-2 (C) 4.4 03:08:14 37° NNE 03:08:14 37° NNE 03:12:01 10° NE
Cosmos 2369 Rocket 3.1 03:05:39 45° ESE 03:05:46 45° ESE 03:11:04 10° NE
Cosmos 1943 Rocket 3.8 03:30:59 22° N 03:30:59 22° N 03:32:57 10° NNE
CZ-2C R/B 4.1 03:24:52 10° SE 03:29:46 35° ENE 03:34:35 10° N
USA 238 DEB 4.0 03:34:57 47° NNW 03:34:57 47° NNW 03:40:25 10° NNE
USA 238 4.0 03:35:01 48° NNW 03:35:01 48° NNW 03:40:31 10° NNE
DELTA 2 R/B (1) 3.9 03:35:03 56° S 03:35:14 56° SSE 03:40:39 10° E
Cosmos 921 Rocket 3.6 03:39:09 57° ESE 03:39:09 57° ESE 03:43:06 10° SSE
USA 215 4.2 03:35:25 10° E 03:41:22 39° NNE 03:44:01 28° NNW
MOS 1-B Rocket 4.2 03:36:05 10° SSE 03:42:22 67° ENE 03:46:58 16° N
SJ-12 4.4 03:48:37 10° NNE 03:52:43 60° E 03:56:48 10° S
SL-19 R/B 4.3 03:47:19 10° SSE 03:52:54 78° ENE 03:56:43 21° NNW
Cosmos 1151 Rocket 3.6 03:51:51 29° NNE 03:53:51 56° E 03:58:08 10° SSE
Okean 3 Rocket 4.3 03:50:59 10° S 03:55:23 53° E 03:59:49 10° NNE
BREEZE-M DEB (TANK) 3.2 03:59:20 55° WNW 04:00:28 85° SSW 04:15:03 10° SE
Cosmos 1766 Rocket 3.7 03:57:36 10° S 04:01:55 71° E 04:06:14 10° NNE
BREEZE M DEB (TANK) 4.3 04:12:17 22° N 04:12:17 22° N 04:13:54 10° NE
Cosmos 1328 Rocket 3.9 04:08:49 13° N 04:12:42 64° E 04:16:59 10° SSE
Genesis I 4.4 04:15:49 31° SSW 04:15:49 31° SSW 04:18:31 10° S
ATLAS 5 CENTAUR R/B 3.2 04:11:58 10° S 04:15:17 30° ESE 04:18:51 10° NE
Cosmos 836 Rocket 4.4 04:16:26 27° NNW 04:19:21 76° WSW 04:24:32 10° SSE
Meteor 2-6 Rocket 4.1 04:14:23 10° N 04:19:49 86° E 04:25:13 10° S
Cosmos 2279 Rocket 3.9 04:13:45 10° N 04:19:58 90° W 04:26:10 10° S
COSMO-SKYMED 1 2.4 04:17:24 10° S 04:21:44 82° WSW 04:24:46 20° NNW
CZ-4C R/B 3.3 04:25:27 10° SSE 04:28:31 56° ENE 04:30:39 18° N
Cosmos 1812 3.0 04:29:57 43° W 04:29:57 43° W 04:33:31 10° SSW
CENTAUR R/B 3.7 04:30:49 23° NW 04:31:49 23° NNW 04:37:24 10° NNE
Cosmos 1503 Rocket 3.9 04:27:05 10° SSW 04:32:18 67° WNW 04:37:38 10° NNE
Cosmos 1833 4.2 04:27:30 15° NNW 04:32:22 88° ENE 04:38:07 10° SSE
Cosmos 1408 Rocket 3.6 04:31:05 10° S 04:35:22 76° E 04:39:41 10° N
Cosmos 1634 Rocket 4.3 04:31:46 10° NNW 04:37:34 41° W 04:43:17 10° SSW
Cosmos 1777 Rocket 4.4 04:36:06 10° S 04:41:14 67° ESE 04:46:26 10° NNE
Meteor 1-10 Rocket 4.1 04:37:53 10° NNW 04:43:27 82° W 04:49:00 10° S
DMSP B5D2-2 4.3 04:43:27 10° SSE 04:48:37 71° ENE 04:53:49 10° N
Cosmos 773 Rocket 4.1 04:43:38 10° NNW 04:48:52 76° ENE 04:54:01 10° SSE
Meteor 2-15 4.3 04:42:49 10° N 04:48:54 81° W 04:54:56 10° S
Cosmos 2369 Rocket 3.0 04:47:35 20° W 04:49:57 27° NW 04:54:41 10° N
Cosmos 1515 Rocket 3.4 04:51:03 10° N 04:55:25 80° W 04:59:45 10° S
Meteor 1-31 Rocket 3.4 04:52:08 10° N 04:55:38 32° WNW 04:59:08 10° SW
SJ 16-02 1.4 04:52:10 10° SSW 04:56:32 84° ESE 05:00:56 10° NNE
BREEZE-M DEB (TANK) 3.5 04:42:34 10° WSW 04:56:55 81° NNW 05:00:38 10° NE
IRAS Rocket 4.2 04:53:07 10° SSE 04:58:39 90° NE 05:04:10 10° NNW
Landsat 5 4.1 04:55:19 10° S 04:59:35 42° W 05:03:50 10° NNW
H-2A R/B 4.2 04:56:51 10° NNW 05:00:49 17° W 05:02:26 10° WSW
SMAP 4.2 04:55:18 10° NNE 04:59:48 47° E 05:04:17 10° S
ATLAS 3B R/B 2.9 04:53:37 10° SSW 05:00:04 74° ESE 05:06:51 10° NE
Meteor 2-19 Rocket 4.3 04:54:34 10° SSW 05:00:36 72° W 05:06:40 10° N
Cosmos 1656 Rocket 4.4 04:56:59 10° WSW 05:01:38 29° NW 05:06:20 10° N
Envisat 3.7 04:57:36 10° N 05:01:58 29° WNW 05:06:18 10° SW
SL-27 R/B 2.4 04:59:05 10° NNW 05:02:40 89° WSW 05:06:11 10° SSE
FAST Rocket 3.9 05:04:58 10° S 05:07:34 87° E 05:10:31 10° N
Cosmos 2098 Rocket 4.4 05:06:18 10° WSW 05:09:11 18° WNW 05:12:31 10° NNW
CZ-2C R/B 3.4 05:05:13 10° SSW 05:10:01 31° W 05:14:46 10° NW
Cosmos 1500 Rocket 3.5 05:08:00 10° SSW 05:12:26 75° W 05:16:56 10° N
Cosmos 1174 3.1 05:12:36 10° SW 05:15:31 51° WNW 05:18:31 10° NNE
Alouette 2 Rocket 3.4 05:13:14 10° N 05:16:55 73° E 05:20:33 10° SSE
SL-8 R/B 3.8 05:15:27 13° WNW 05:19:43 73° SSW 05:24:28 10° SE
Sich 1 3.7 05:16:55 10° S 05:21:07 59° E 05:25:20 10° NNE
DELTA 2 R/B (1) 3.7 05:15:58 10° W 05:21:31 79° S 05:27:04 10° E
Meteor 1-20 Rocket 4.3 05:17:32 10° S 05:23:05 90° E 05:28:48 10° N
Cosmos 2227 Rocket 4.3 05:19:16 10° N 05:23:33 21° NE 05:27:48 10° ESE
USA 215 3.3 05:17:31 10° SE 05:24:03 74° SW 05:30:36 10° NW
Cosmos 1805 Rocket 3.6 05:20:03 10° S 05:24:27 85° E 05:28:50 10° N
NOAA 12 4.1 05:19:21 10° N 05:24:34 68° WNW 05:29:45 10° SSW
H-2A R/B 2.0 05:21:31 10° S 05:25:45 75° WSW 05:30:07 10° NNW
Cosmos 2026 Rocket 4.1 05:26:55 10° S 05:33:17 89° E 05:39:36 10° N
Cosmos 1602 3.6 05:30:20 10° SSW 05:34:06 68° W 05:37:54 10° N
Cosmos 2195 Rocket 4.4 05:30:55 10° SSW 05:37:02 73° W 05:43:10 10° N
CZ-4B R/B 1.5 05:33:58 10° SSE 05:37:17 77° ENE 05:40:35 10° N
Okean O Rocket 3.9 05:34:21 10° NE 05:38:14 29° E 05:42:04 10° SSE
CZ-4B R/B 3.5 05:37:03 10° N 05:40:08 28° WNW 05:43:14 10° SW
